Printer-friendly version

IAU Minor Planet Center

Minor Planet Center

MPEC 2004-G44 : 2004 GZ14

The following Minor Planet Electronic Circular may be linked-to from your own Web pages, but must not otherwise be redistributed electronically.


Read MPEC 2004-G43 Read MPEC 2004-G45


M.P.E.C. 2004-G44                                Issued 2004 Apr. 15, 12:04 UT

     The Minor Planet Electronic Circulars contain information on unusual
         minor planets and routine data on comets.  They are published
   on behalf of Commission 20 of the International Astronomical Union by the
          Minor Planet Center, Smithsonian Astrophysical Observatory,
                          Cambridge, MA 02138, U.S.A.

         Supported in part by the Steven and Michele Kirsch Foundation
             Prepared using the Tamkin Foundation Computer Network

                              MPC@CFA.HARVARD.EDU
          URL http://cfa-www.harvard.edu/iau/mpc.html  ISSN 1523-6714

                                   2004 GZ14

Observations:
     K04G14Z* C2004 04 14.24065 13 10 25.37 +19 32 49.3          18.9   EG044704
     K04G14Z  C2004 04 14.25507 13 10 36.07 +19 36 23.4          19.4   EG044704
     K04G14Z  C2004 04 14.26698 13 10 44.89 +19 39 19.5          19.2   EG044704
     K04G14Z  C2004 04 14.27771 13 10 52.80 +19 41 57.5          18.7   EG044704
     K04G14Z  C2004 04 14.85762 13 18 16.59 +21 52 31.4          18.7 R EG044J95
     K04G14Z  C2004 04 14.86051 13 18 17.29 +21 53 17.8          18.2 R EG044113
     K04G14Z  C2004 04 14.86108 13 18 17.70 +21 53 25.0          18.3 R EG044113
     K04G14Z  C2004 04 14.86142 13 18 19.14 +21 53 21.3          19.0 R EG044J95
     K04G14Z  C2004 04 14.86222 13 18 18.45 +21 53 39.7          18.5 R EG044113
     K04G14Z  C2004 04 14.86540 13 18 21.89 +21 54 12.5          19.0 R EG044J95
     K04G14Z  C2004 04 14.87190 13 18 26.34 +21 55 34.9          19.3 R EG044J95
     K04G14Z  C2004 04 14.88763 13 18 36.112+21 59 02.49         18.5 V EG044611
     K04G14Z  C2004 04 14.88995 13 18 37.656+21 59 32.45                EG044611
     K04G14Z  C2004 04 14.89227 13 18 39.249+22 00 01.36                EG044611
     K04G14Z  C2004 04 14.96210 13 19 24.52 +22 14 29.3                 EG044557
     K04G14Z  C2004 04 14.96251 13 19 24.78 +22 14 34.5                 EG044557
     K04G14Z  C2004 04 14.96332 13 19 25.28 +22 14 45.1                 EG044557
     K04G14Z  C2004 04 14.96413 13 19 25.83 +22 14 54.8                 EG044557
     K04G14Z  C2004 04 14.98407 13 19 38.96 +22 18 59.5                 EG044246
     K04G14Z  C2004 04 14.98628 13 19 40.40 +22 19 26.2                 EG044246
     K04G14Z  C2004 04 14.98695 13 19 40.81 +22 19 34.4                 EG044246
     K04G14Z  C2004 04 14.98746 13 19 41.15 +22 19 41.2                 EG044246
     K04G14Z  C2004 04 15.04802 13 20 20.16 +22 31 47.4                 EG044118
     K04G14Z  C2004 04 15.04956 13 20 21.19 +22 32 05.2                 EG044118
     K04G14Z  C2004 04 15.05076 13 20 21.96 +22 32 19.6                 EG044118
     K04G14Z  C2004 04 15.05192 13 20 22.79 +22 32 33.8          19.1 V EG044118
     K04G14Z  C2004 04 15.05308 13 20 23.50 +22 32 46.8                 EG044118
     K04G14Z  C2004 04 15.05655 13 20 25.78 +22 33 28.6          18.9 V EG044118
     K04G14Z  C2004 04 15.20481 13 22 16.98 +23 03 14.1          19.1 R EG044854
     K04G14Z  C2004 04 15.20968 13 22 19.93 +23 04 10.7          19.3 R EG044854
     K04G14Z  C2004 04 15.21456 13 22 23.09 +23 05 09.1          18.9 R EG044854
     K04G14Z  C2004 04 15.28503 13 23 05.85 +23 18 40.0          18.6 R EG044926
     K04G14Z  C2004 04 15.28557 13 23 06.17 +23 18 46.1          18.8 R EG044926
     K04G14Z  C2004 04 15.28610 13 23 06.50 +23 18 52.3          19.0 R EG044926
     K04G14Z  C2004 04 15.30056 13 23 14.52 +23 21 32.6          19.2 R EG044448
     K04G14Z  C2004 04 15.30427 13 23 16.74 +23 22 14.3          18.9 R EG044448
     K04G14Z  C2004 04 15.30798 13 23 18.95 +23 22 56.2          19.2 R EG044448

Observer details:
113 Volkssternwarte Drebach, Schoenbrunn.  Observer A. Knoefel.  0.5-m f/5
    reflector + CCD.
118 Modra.  Observers J. Vilagi, L. Kornos.  0.6-m f/5.5 reflector + CCD.
246 Klet Observatory-KLENOT.  Observer M. Kocer.  1.06-m KLENOT Telescope
    + CCD.
448 Desert Moon Observatory.  Observer B. L. Stevens.  0.3-m
    Schmidt-Cassegrain + CCD.
557 Ondrejov.  Observer L. Sarounova.  0.65-m f/3.6 reflector + CCD.
611 Starkenburg.  Observer F. Hormuth.  0.45-m f/4.4 reflector + CCD.
704 Lincoln Laboratory ETS, New Mexico.  Observers M. Blythe, F. Shelly,
    M. Bezpalko, R. Huber, L. Manguso, D. Torres, R. Kracke, M. McCleary,
    H. Stange, A. Milner.  Measurers J. Stuart, R. Sayer, J. Evans, J. Kommers.
    1.0-m f/2.15 reflector + CCD.
854 Sabino Canyon Observatory, Tucson.  Observer J. E. McGaha.  0.356-m f/10.0
    Schmidt-Cassegrain + CCD.
926 Tenagra II Observatory.  Observers P. R. Holvorcem, M. Schwartz.  0.81-m
    f/7 Ritchey-Chretien + CCD.
J95 Great Shefford.  Observer P. Birtwhistle.  0.30-m f/6.3 Schmidt-Cassegrain
    + CCD.

Orbital elements:
2004 GZ14
Epoch 2004 Apr. 5.0 TT = JDT 2453100.5                  MPC
M  23.05202              (2000.0)            P               Q
n   0.60274868     Peri.  308.28675     -0.83991170     -0.52760905
a   1.3879651      Node   200.84638     +0.53784752     -0.84052853
e   0.3242649      Incl.   20.94118     -0.07258363     -0.12304669
P   1.64           H   24.0           G   0.15
From 37 observations 2004 Apr. 14-15.

Ephemeris:
2004 GZ14                a,e,i = 1.39, 0.32, 21                  q = 0.9379
Date    TT    R. A. (2000) Decl.     Delta      r     Elong.  Phase     V
2004 04 15    13 19.85   +22 23.3    0.055    1.050   147.6    30.8    19.1
2004 04 16    13 30.46   +25 22.1    0.062    1.054   144.4    33.6    19.5
2004 04 17    13 39.35   +27 42.2    0.068    1.058   141.8    35.9    19.8
2004 04 18    13 46.89   +29 33.7    0.075    1.063   139.6    37.8    20.0
2004 04 19    13 53.33   +31 03.4    0.083    1.067   137.7    39.3    20.3
2004 04 20    13 58.90   +32 16.5    0.090    1.071   136.2    40.5    20.5
2004 04 21    14 03.73   +33 16.5    0.097    1.076   134.8    41.5    20.7
2004 04 22    14 07.97   +34 06.2    0.105    1.080   133.6    42.3    20.9
2004 04 23    14 11.70   +34 47.5    0.112    1.085   132.6    43.0    21.1
2004 04 24    14 15.02   +35 22.0    0.120    1.089   131.7    43.6    21.3
2004 04 25    14 17.98   +35 50.9    0.127    1.094   130.9    44.0    21.4
2004 04 26    14 20.63   +36 15.0    0.135    1.098   130.2    44.4    21.6
2004 04 27    14 23.02   +36 35.1    0.142    1.103   129.5    44.7    21.7
2004 04 28    14 25.18   +36 51.7    0.150    1.107   129.0    45.0    21.8
2004 04 29    14 27.15   +37 05.3    0.158    1.112   128.4    45.2    21.9
2004 04 30    14 28.95   +37 16.4    0.166    1.117   127.9    45.4    22.1
2004 05 01    14 30.60   +37 25.1    0.173    1.121   127.5    45.5    22.2
2004 05 02    14 32.11   +37 31.9    0.181    1.126   127.1    45.6    22.3
2004 05 03    14 33.51   +37 36.8    0.189    1.131   126.7    45.6    22.4
2004 05 04    14 34.81   +37 40.2    0.197    1.136   126.3    45.7    22.5
2004 05 05    14 36.01   +37 42.0    0.204    1.141   125.9    45.7    22.6

Timothy B. Spahr             (C) Copyright 2004 MPC           M.P.E.C. 2004-G44

Read MPEC 2004-G43 Read MPEC 2004-G45


Our Web policy. Index to the CBAT/MPC/ICQ pages.


Valid HTML 4.01!